Airfield :
LOGIN :

Register | Disclaimer

   EN    FR    IT 

 










Legend :    VFR   Marginal VFR   IFR   Intensive IFR   Very Intensive IFR
Visi :
Ceiling :
>= 8 km
>= 3000ft
5 to 8 km
1000 to 3000 ft
1500m to 5 km
500 to 1000 ft
800 to 1500m
200 to 500 ft
< 800m
< 200 ft
Symbols :   Thunderstorms  Fog  Heavy snow  Heavy precipitations  Wind > 20 kt
SIGMETs :     Misc.  Thunderstorms  Icing  Turbulence  Mountain Waves  Volcanic Ashes







- Airport Elevation : 154 ft
- IATA code : SZZ


EPSC - Szczecin Goleniow

CURRENT METAR :
  • 252030Z 28003KT CAVOK 01/00 Q1019

EXPIRED METARs :
  • 252000Z 31004KT 9999 FEW010 01/M00 Q1019
  • 251930Z 31005KT 9999 SCT010 02/00 Q1018
  • 251900Z 33005KT 9999 OVC010 03/01 Q1018
  • 251830Z 34008KT 9999 FEW008 BKN010 OVC014 03/01 Q1017
  • 251800Z 34007KT 310V030 9999 FEW007 BKN010 04/02 Q1017

TAF TAF EPSC
Valid from the 25 at 18:00 until the 26 at 18:00 UTC


251730Z 2518/2618 34010KT 9999 SCT020
TEMPO 2518/2520 BKN010
BECMG 2519/2522 27004KT
PROB40
TEMPO 2520/2607 3000 BR BKN004 BKN010
BECMG 2604/2607 30014KT
TEMPO 2609/2616 32018G32KT BKN014TCU
No reported NOTAMs for that airfield.



MET'MAP, your aeronautical weather chart ! - Copyright ORBIFLY December 2007 - Disclaimer

ORBIFLY MET'MAP TEAM :

Programming & Development : Alexandra Zaïnal
Concept & Development : Baudouin d'Aumeries
Co-Development & Prog : Marc-Olivier Méhu
Technical & hardware support : Manuel Goepfert

Contact : metmap@orbifly.com




SOURCES & CREDITS :

   NOAA